Hourly Data Report for April 07, 2021

MIRAMICHI RCS
NEW BRUNSWICK
Current Station Operator: ECCC - MSC

47°00'34.000" N
65°27'54.000" W
33.00 m
8100989
71744
ACQ

Download Data

Hourly Data (April 2021)
Hourly Data Report for April 7, 2021
TIME
LST
Temp Definition
°C
Dew Point Definition
°C
Rel Hum Definition
%
Precip. Amount Definition
mm

Wind Dir Definition
10's deg

Wind Spd Definition
km/h
Visibility Definition
km
Stn Press Definition
kPa
Hmdx Definition


Wind Chill Definition


Weather Definition


00:00 4.4 3.9 97 LegendMM 3 11   100.89     LegendNANA
01:00 4.3 3.7 96 LegendMM 4 13   100.89     LegendNANA
02:00 4.1 3.5 96 LegendMM 4 15   100.89     LegendNANA
03:00 3.9 3.4 96 LegendMM 5 16   100.92     LegendNANA
04:00 3.8 3.3 96 LegendMM 5 13   100.98     LegendNANA
05:00 3.8 3.3 96 LegendMM 3 10   101.03     LegendNANA
06:00 3.7 3.2 97 LegendMM 3 10   101.09     LegendNANA
07:00 3.9 3.5 97 LegendMM 4 8   101.16     LegendNANA
08:00 4.3 3.7 96 LegendMM 3 10   101.21     LegendNANA
09:00 4.6 3.7 94 LegendMM 3 17   101.25     LegendNANA
10:00 4.9 4.1 94 LegendMM 3 16   101.28     LegendNANA
11:00 5.3 4.5 94 LegendMM 4 16   101.30     LegendNANA
12:00 5.7 4.9 95 LegendMM 3 13   101.33     LegendNANA
13:00 6.1 5.2 94 LegendMM 3 16   101.31     LegendNANA
14:00 6.5 5.8 95 LegendMM 4 15   101.31     LegendNANA
15:00 6.7 5.9 94 LegendMM 3 14   101.30     LegendNANA
16:00 6.8 5.6 92 LegendMM 3 14   101.32     LegendNANA
17:00 6.8 5.9 94 LegendMM 4 14   101.33     LegendNANA
18:00 6.6 6.1 97 LegendMM 3 8   101.37     LegendNANA
19:00 6.6 6.2 97 LegendMM 3 8   101.39     LegendNANA
20:00 6.6 6.2 98 LegendMM 3 7   101.43     LegendNANA
21:00 6.3 6.0 98 LegendMM 4 6   101.44     LegendNANA
22:00 6.2 5.8 97 LegendMM 3 8   101.43     LegendNANA
23:00 6.0 5.5 97 LegendMM 4 11   101.44     LegendNANA

Notes on Data Quality.

Legend

  • E = Estimated
  • M = Missing
  • NA = Not Available*
  • [empty] = Indicates an unobserved value
Date modified: